STARLINK BF

Last updated on Sun May 21 2023 00:02:05 GMT+0000 (Coordinated Universal Time)

1 56556U 23065BF 23140.18616338 -.00085282 00000+0 -49988-3 0 9996 2 56556 43.0075 48.2537 0002246 266.8617 93.1996 15.77504563 1367

Satellite not in orbit

STARLINK BF